User: anonymous   Login
Location: Unspecified
(0.0000°N, 0.0000°E)
Time: 06:44:58
(UTC+00:00)
Language:

ETS 8 - Orbit

View from above orbital plane
View from above orbital plane
View from above satellite
View from above satellite

Ground track
Ground track

The orbit data is extracted from the following two-line orbital elements,

1 29656U 06059A   16208.91802458 -.00000259  00000-0  00000+0 0  9998
2 29656   4.9702  61.0962 0005007  49.2598 310.8340  1.00270937 35225
Epoch (UTC): 26 July 2016 22:01:57
Eccentricity: 0.0005007
inclination: 4.9702°
perigee height: 35765 km
apogee height: 35807 km
right ascension of ascending node: 61.0962°
argument of perigee: 49.2598°
revolutions per day: 1.00270937
mean anomaly at epoch: 310.8340°
orbit number at epoch: 3522

The dashed part of the orbit path shows where the satellite is in the earth's shadow,  

DLR